Location: Dugenta
(41.1333°N, 14.4500°E)
Time: 14:47:29
(UTC+00:00)

COSMOS 2428 - Pass Details

Date: 03 March 2021
Orbit: 845 x 858 km, 70.9° (Epoch: 21 April)

Event Time Altitude Azimuth Distance (km) Brightness Sun altitude
Rises 19:15:22 0° 205° (SSW) 3,389 6.0 -26.9°
Reaches altitude 10° 19:17:48 10° 206° (SSW) 2,458 5.2 -27.3°
Maximum altitude 19:23:27 81° 293° (WNW) 862 2.7 -28.4°
Enters shadow 19:24:43 56° 10° (N) 1,004 3.0 -28.6°
